Weather History for Flint, MI

Change the Weather History Date:

Saturday, October 6, 2012

  Actual Average Record
Temperature  
Mean Temperature 46 °F 53 °F  
Max Temperature 53 °F 64 °F 89 °F (1963)
Min Temperature 38 °F 42 °F 26 °F (2003)
Degree Days  
Heating Degree Days 19 13  
Month to date heating degree days 50 70  
Since 1 July heating degree days 224 280  
Cooling Degree Days 0 0  
Month to date cooling degree days 2 2  
Year to date cooling degree days 855 528  
Moisture  
Dew Point 34 °F    
Average Humidity 67    
Maximum Humidity 92    
Minimum Humidity 42    
Precipitation  
Precipitation 0.00 in 0.09 in 2.00 in (1940)
Month to date precipitation 0.10 0.57  
Year to date precipitation 24.40 24.88  
Snow  
Snow 0.00 in 0.00 in T in ()
Month to date snowfall 0.0 0.0  
Since 1 July snowfall 0.0 0.0  
Since 1 September snowfall 0.0 0.0  
Snow Depth 0.00 in    
Sea Level Pressure  
Sea Level Pressure 30.02 in    
Wind  
Wind Speed 10 mph (West)    
Max Wind Speed 23 mph    
Max Gust Speed 30 mph    
Visibility 10 miles    
Events      
T = Trace of Precipitation, MM = Missing Value Source: NWS Daily Summary

Daily Weather History Graph

Daily Weather History Graph

Search for Another Location

Airport:

Trip Planner

Search our weather history database for the weather conditions in past years. The results will help you decide how hot, cold, wet, or windy it might be!

Date:

Astronomy

Oct. 06, 2012 Rise Set
Actual Time 7:38 AM EDT 7:06 PM EDT
Civil Twilight 7:10 AM EDT 7:34 PM EDT
Nautical Twilight 6:37 AM EDT 8:07 PM EDT
Astronomical Twilight 6:04 AM EDT 8:40 PM EDT
Moon 11:14 PM EDT (10/6) 1:39 PM EDT (10/6)
Length of Visible Light 12h 24m
Length of Day
11h 28m
Waning Gibbous, 65% of the Moon is Illuminated
Oct 6
Waning Gibbous
Oct 8
Last Quarter
Oct 15
New
Oct 21
First Quarter
Oct 29
Full

Hourly Weather History & Observations

Time (EDT) Temp. Windchill Dew Point Humidity Pressure Visibility Wind Dir Wind Speed Gust Speed Precip Events Conditions
12:53 AM 46.9 °F - 39.9 °F 77% 29.95 in 10.0 mi SW 9.2 mph - N/A   Overcast
1:53 AM 45.0 °F 40.6 °F 39.9 °F 82% 29.94 in 10.0 mi SW 8.1 mph - N/A   Overcast
2:53 AM 43.0 °F 38.8 °F 39.0 °F 86% 29.94 in 10.0 mi SW 6.9 mph - N/A   Partly Cloudy
3:53 AM 41.0 °F 37.1 °F 37.9 °F 89% 29.94 in 9.0 mi WSW 5.8 mph - N/A   Clear
4:53 AM 39.9 °F 35.8 °F 37.0 °F 89% 29.94 in 9.0 mi WSW 5.8 mph - N/A   Partly Cloudy
5:53 AM 39.2 °F 35.0 °F 35.6 °F 87% 29.93 in 10.0 mi WSW 5.8 mph - N/A   Mostly Cloudy
7:53 AM 41.0 °F 35.2 °F 33.1 °F 73% 29.97 in 10.0 mi West 9.2 mph - N/A   Overcast
8:53 AM 43.0 °F 37.2 °F 34.0 °F 71% 29.99 in 10.0 mi West 10.4 mph - N/A   Overcast
9:53 AM 44.6 °F 38.8 °F 33.8 °F 66% 30.00 in 10.0 mi West 11.5 mph - N/A   Overcast
10:53 AM 46.0 °F 38.5 °F 30.9 °F 56% 30.01 in 10.0 mi West 19.6 mph 26.5 mph N/A   Overcast
11:53 AM 46.9 °F - 30.9 °F 54% 30.01 in 10.0 mi West 17.3 mph 24.2 mph N/A   Scattered Clouds
12:53 PM 48.0 °F - 30.0 °F 50% 30.01 in 10.0 mi West 18.4 mph - N/A   Mostly Cloudy
1:53 PM 50.0 °F - 28.9 °F 44% 30.01 in 10.0 mi WNW 21.9 mph 27.6 mph N/A   Overcast
2:53 PM 48.0 °F - 30.9 °F 52% 30.03 in 10.0 mi West 19.6 mph - N/A   Overcast
3:53 PM 48.9 °F - 30.9 °F 50% 30.04 in 10.0 mi West 16.1 mph - N/A   Mostly Cloudy
4:53 PM 48.0 °F - 33.1 °F 56% 30.05 in 10.0 mi West 10.4 mph - N/A   Overcast
5:53 PM 48.0 °F - 33.1 °F 56% 30.06 in 10.0 mi West 8.1 mph - N/A   Overcast
6:53 PM 46.9 °F - 32.0 °F 56% 30.08 in 10.0 mi West 11.5 mph - N/A   Overcast
7:53 PM 46.0 °F 41.4 °F 32.0 °F 58% 30.09 in 10.0 mi West 9.2 mph - N/A   Overcast
8:53 PM 43.0 °F 38.8 °F 33.1 °F 68% 30.12 in 10.0 mi West 6.9 mph - N/A   Overcast
9:53 PM 41.0 °F 38.0 °F 34.0 °F 76% 30.12 in 10.0 mi WNW 4.6 mph - N/A   Overcast
10:53 PM 42.8 °F 38.0 °F 33.8 °F 70% 30.11 in 10.0 mi WNW 8.1 mph - N/A   Overcast
11:53 PM 39.9 °F 35.1 °F 33.1 °F 77% 30.14 in 10.0 mi NW 6.9 mph - N/A   Partly Cloudy